User: anonymous   Login
Location: Unspecified
(0.0000°N, 0.0000°E)
Time: 19:14:05
(UTC+00:00)
Language:

TBA - TO BE ASSIGNED - Orbit

View from above orbital plane
View from above orbital plane
View from above satellite
View from above satellite

Ground track
Ground track

The orbit is defined by the following mean orbital elements,

1 68267U          26145.51635806 +.00000000 +00000-0 +67013-3 0 00004
2 68267  53.1580 320.9807 0001144  74.8196 285.2933 15.35424439    09
Epoch (UTC): 25 May 2026 12:23:33
Eccentricity: 0.0001144
inclination: 53.1580°
perigee height: 459 km
apogee height: 460 km
right ascension of ascending node: 320.9807°
argument of perigee: 74.8196°
revolutions per day: 15.35424439
mean anomaly at epoch: 285.2933°

The dashed part of the orbit path shows where the satellite is in the earth's shadow,  

DLR